Location: McQuaid (historical)
(40.7959°N, 81.7457°W)
Time: 03:50:25
(UTC+00:00)

Daily predictions for brighter satellites

Satellite Brightness Start Highest point End
(mag) Time Altitude Azimuth Time Altitude Azimuth Time Altitude Azimuth
ISS -2.0 00:00:21 10° NW 00:02:03 25° NNW 00:02:03 25° NNW
Cosmos 2266 Rocket 4.0 00:00:09 10° N 00:06:30 63° E 00:12:50 10° SSE
SL-16 R/B 3.4 00:02:00 10° N 00:05:05 27° NNE 00:05:05 27° NNE
Cosmos 2082 Rocket 3.2 00:02:11 10° SW 00:07:37 44° WNW 00:11:58 15° N
ATLAS 5 CENTAUR R/B 3.7 00:05:27 10° NNW 00:08:17 21° N 00:08:17 21° N
Meteor 2-15 Rocket 4.3 00:06:50 10° S 00:12:56 72° E 00:15:51 33° NNE
Cosmos 1328 Rocket 4.4 00:12:38 10° SSW 00:16:56 50° W 00:19:19 24° NNW
CZ-2C R/B 3.3 00:17:30 10° SW 00:19:37 20° S 00:19:37 20° S
Meteor 1-27 Rocket 4.3 00:15:31 10° S 00:19:10 40° SSE 00:19:10 40° SSE
Cosmos 2278 3.9 00:15:29 10° NNW 00:21:10 71° WSW 00:26:48 10° SSE
Lacrosse 5 rocket 3.7 00:18:12 10° NNW 00:18:55 14° NNW 00:18:55 14° NNW
ARGOS 4.1 00:21:58 10° S 00:27:09 46° W 00:32:22 10° NNW
IRAS Rocket 4.2 00:28:34 68° SSE 00:28:34 68° SSE 00:33:26 10° SSW
COSMOS 2455 4.5 00:28:01 10° WSW 00:33:09 29° NW 00:36:35 17° N
Cosmos 1655 Rocket 4.2 00:32:42 10° NNW 00:39:05 71° W 00:45:23 10° S
DMSP B5D2-2 4.3 00:40:33 67° W 00:40:33 67° W 00:45:37 10° SSW
GEOS 3 Rocket 4.4 00:46:40 46° NW 00:46:40 46° NW 00:50:16 10° NW
CZ-4C R/B 3.9 01:09:56 10° NW 01:17:10 47° WSW 01:21:47 26° S
CENTAUR R/B 4.3 08:51:33 25° NE 08:51:33 25° NE 08:54:22 10° NE
Cosmos 2344 4.1 09:14:06 45° NNE 09:14:06 45° NNE 09:19:11 10° NNE
USA 238 DEB 3.9 09:40:07 57° NNE 09:40:07 57° NNE 09:45:25 10° NNE
USA 238 3.9 09:40:11 57° NNE 09:40:11 57° NNE 09:45:32 10° NNE
BREEZE-M DEB (TANK) 3.7 09:43:04 54° ENE 09:43:04 54° ENE 09:52:29 10° ESE
USA 215 4.3 09:43:08 10° E 09:48:53 34° NNE 09:50:35 30° N
Cosmos 1241 Rocket 4.5 09:49:44 69° NNE 09:50:09 71° ENE 09:56:19 10° SE
Cosmos 921 Rocket 4.4 09:53:48 37° ENE 09:53:54 37° ENE 09:58:02 10° SE
H-2A R/B 4.4 09:57:01 10° NNE 10:00:23 31° E 10:03:46 10° SSE
Cosmos 1867 3.8 10:03:11 60° S 10:03:11 60° S 10:07:38 10° SSE
Cosmos 2208 Rocket 4.1 10:02:49 73° SSE 10:02:49 73° SSE 10:07:39 10° SSE
Cosmos 2369 Rocket 2.2 10:05:54 32° S 10:08:33 76° ESE 10:14:09 10° NNE
Meteor 2-13 Rocket 4.5 10:07:34 10° S 10:13:40 78° E 10:19:45 10° N
Cosmos 1486 Rocket 4.2 10:09:52 10° S 10:15:08 72° ESE 10:20:25 10° NNE
Cosmos 1656 Rocket 3.7 10:19:37 10° SSW 10:25:00 74° ESE 10:30:26 10° NNE
Iridium 2 3.9 10:22:22 10° S 10:26:07 66° E 10:26:47 53° NE
COSMO-SKYMED 1 2.9 10:28:15 10° SSE 10:32:32 64° ENE 10:35:30 20° N
Cosmos 1943 Rocket 3.4 10:35:16 25° NNW 10:35:16 25° NNW 10:38:16 10° N
CZ-2C R/B 2.8 10:28:31 10° SSE 10:34:00 72° ENE 10:39:22 10° N
CENTAUR R/B 3.3 10:38:46 31° NW 10:38:56 31° NW 10:45:09 10° NNE
Envisat 2.9 10:35:35 10° NNE 10:40:42 84° WNW 10:45:46 10° SSW
TSX-5 4.3 10:38:24 32° NNW 10:41:04 81° WSW 10:45:34 10° SSE
Cosmos 968 Rocket 4.2 10:45:20 33° NW 10:45:20 33° NW 10:48:57 10° N
Cosmos 2098 Rocket 2.8 10:41:25 10° SSW 10:45:09 71° W 10:49:57 10° N
DELTA 2 R/B (1) 3.7 10:47:13 29° WSW 10:50:02 68° SSE 10:55:32 10° E
Genesis I 3.8 10:52:06 39° WSW 10:52:06 39° WSW 10:55:48 10° S
Cosmos 2279 Rocket 3.9 10:48:08 10° N 10:54:21 88° W 11:00:33 10° S
SKYMED 3 4.5 10:52:19 10° S 10:56:38 68° W 10:59:53 17° NNW
NOSS 3-2 (C) 4.2 11:00:56 26° WNW 11:02:05 28° NW 11:07:35 10° NNE
CZ-4B R/B 4.5 11:02:24 10° E 11:03:37 12° ENE 11:04:49 10° NE
Cosmos 1812 3.0 11:03:50 36° WNW 11:04:40 41° W 11:08:16 10° SSW
CBERS 1 LM4 rocket 4.4 11:01:26 10° N 11:06:13 59° WNW 11:11:10 10° SSW
MOS 1-B Rocket 4.3 11:00:49 10° S 11:06:56 45° W 11:12:27 10° NNW
Cosmos 1515 Rocket 4.2 11:02:39 10° N 11:06:58 57° E 11:11:13 10° SSE
ATLAS 3B R/B 3.7 11:01:01 10° S 11:07:07 46° ESE 11:13:29 10° NE
Cosmos 1354 Rocket 3.9 11:03:21 10° SSW 11:08:37 79° WNW 11:13:57 10° NNE
SJ 16-02 2.5 11:05:31 10° S 11:09:42 46° ESE 11:13:54 10° NNE
Cosmos 1634 Rocket 4.4 11:05:10 10° NNW 11:10:57 40° W 11:16:40 10° SSW
Meteor PRIRODA 4.2 11:08:23 10° NNE 11:11:58 60° E 11:15:32 10° S
ADEOS 3.5 11:09:38 10° NNE 11:14:53 82° WNW 11:20:06 10° SSW
CZ-4B R/B 4.4 11:11:34 10° N 11:15:47 43° WNW 11:20:00 10° SW
Landsat 5 3.8 11:13:13 10° S 11:17:38 53° W 11:22:02 10° NNW
Meteor 2-6 Rocket 4.2 11:12:42 10° NNW 11:18:00 56° W 11:23:14 10° S
CZ-4C R/B 2.7 11:16:42 10° S 11:19:48 59° W 11:22:17 15° NNW
SKYMED 2 4.1 11:16:40 10° SSW 11:20:40 36° W 11:24:07 13° NW
SL-8 R/B 3.9 11:17:47 21° NW 11:20:58 66° NNE 11:25:42 10° ESE
ATLAS 5 CENTAUR R/B 1.8 11:17:27 10° SSW 11:21:09 61° ESE 11:25:13 10° NE
Cosmos 1500 Rocket 4.1 11:19:45 10° S 11:24:08 63° E 11:28:34 10° NNE
Meteor 1-31 Rocket 3.6 11:23:28 10° N 11:26:52 29° WNW 11:30:16 10° SW
CZ-2C R/B 3.0 11:22:38 10° NNE 11:27:34 89° ESE 11:32:41 10° SSW
Meteor 2-15 4.4 11:22:41 10° NNW 11:28:44 72° W 11:34:43 10° S
SJ-7 4.4 11:26:57 10° N 11:31:06 62° WNW 11:35:09 10° SSW
USA 215 3.3 11:24:53 10° SE 11:31:26 88° SW 11:37:55 10° NW
Cosmos 921 Rocket 4.5 11:30:39 17° WNW 11:31:53 19° W 11:35:02 10° SW
Cosmos 1833 4.3 11:27:48 10° NNW 11:33:25 59° WSW 11:39:01 10° S
H-2A R/B 4.2 11:31:49 10° NNW 11:34:45 16° WNW 11:36:40 10° WSW
Alouette 2 Rocket 4.1 11:33:57 10° N 11:37:34 49° ENE 11:41:06 10° SSE
H-2A R/B 2.3 11:33:54 10° SSE 11:38:06 74° ENE 11:42:28 10° N
Meteor 1-10 Rocket 4.3 11:33:31 10° NNW 11:38:53 52° W 11:44:14 10° S
Meteor 2-19 Rocket 4.4 11:34:04 10° SSW 11:40:03 63° W 11:46:04 10° N
Cosmos 1151 Rocket 4.4 11:42:46 10° NW 11:45:50 19° W 11:48:54 10° SW
H-2A R/B 3.7 11:42:11 10° NNE 11:46:44 37° E 11:51:16 10° SSE
Cosmos 2297 Rocket 4.1 11:46:16 10° N 11:50:51 25° NE 11:55:25 10° ESE
BREEZE-M DEB (TANK) 3.9 11:41:05 10° WNW 11:52:50 87° SSW 11:56:19 10° SE
Cosmos 2369 Rocket 3.5 11:49:33 10° W 11:53:12 17° NW 11:56:54 10° N
SL-27 R/B 2.6 11:51:33 10° NNW 11:55:04 53° WSW 11:58:29 10° S
